South Lake Tahoe, CA

10:34 AM PDT on October 17, 2017 (GMT -0700)
Lake Tahoe

Weather History for KTVL - March, 2012

Change the Weather History Date:

Tuesday, March 6, 2012

  Actual Average Record
Temperature  
Mean Temperature 30 °F 34 °F  
Max Temperature 42 °F 47 °F 58 °F (1972)
Min Temperature 17 °F 21 °F -9 °F (1976)
Degree Days  
Heating Degree Days 35 31  
Month to date heating degree days 192 189  
Since 1 July heating degree days 4854 5426  
Cooling Degree Days 0 0  
Month to date cooling degree days 0 0  
Year to date cooling degree days 0 0  
Moisture  
Dew Point 19 °F    
Average Humidity 59    
Maximum Humidity 85    
Minimum Humidity 33    
Precipitation  
Precipitation 0.19 in - 1.41 in (1992)
Month to date precipitation 0.21  
Year to date precipitation 5.14  
Sea Level Pressure  
Sea Level Pressure 29.74 in    
Wind  
Wind Speed 11 mph (SSW)    
Max Wind Speed 23 mph    
Max Gust Speed 35 mph    
Visibility 4 miles    
Events Fog , Rain , Snow    
T = Trace of Precipitation, MM = Missing Value Source: NWS Daily Summary

Daily Weather History Graph

Daily Weather History Graph

Search for Another Location

Airport or City:

Trip Planner

Search our weather history database for the weather conditions in past years. The results will help you decide how hot, cold, wet, or windy it might be!

Date:

Astronomy

Mar. 06, 2012 Rise Set
Actual Time 6:24 AM PST 5:58 PM PST
Civil Twilight 5:57 AM PST 6:25 PM PST
Nautical Twilight 5:26 AM PST 6:56 PM PST
Astronomical Twilight 4:55 AM PST 7:27 PM PST
Moon 4:31 PM PST (3/6) 5:02 AM PST (3/6)
Length of Visible Light 12h 27m
Length of Day
11h 34m
Waxing Gibbous, 97% of the Moon is Illuminated
Mar 6
Waxing Gibbous
Mar 8
Full
Mar 14
Last Quarter
Mar 22
New
Mar 30
First Quarter

Hourly Weather History & Observations

Time (PST) Temp. Windchill Dew Point Humidity Pressure Visibility Wind Dir Wind Speed Gust Speed Precip Events Conditions
12:53 AM 42.1 °F 35.2 °F 19.9 °F 41% 29.81 in 10.0 mi SSW 12.7 mph 27.6 mph N/A   Overcast
1:34 AM 37.4 °F 28.2 °F 23.0 °F 56% 29.88 in 3.0 mi SSW 16.1 mph 27.6 mph N/A   Haze
1:53 AM 37.0 °F 28.5 °F 25.0 °F 62% 29.77 in 3.0 mi SSW 13.8 mph 24.2 mph 0.00 in Snow Light Snow
2:00 AM 35.6 °F 24.8 °F 26.6 °F 70% 29.86 in 1.8 mi SSW 19.6 mph 26.5 mph 0.00 in Snow Light Snow
2:11 AM 35.6 °F 27.1 °F 26.6 °F 70% 29.85 in 2.0 mi SSW 12.7 mph 23.0 mph 0.00 in Snow Light Snow
2:21 AM 35.6 °F 26.6 °F 26.6 °F 70% 29.85 in 3.0 mi SSW 13.8 mph 23.0 mph 0.00 in Snow Light Snow
2:53 AM 35.1 °F 25.2 °F 25.0 °F 67% 29.70 in 2.5 mi SSW 16.1 mph 25.3 mph 0.01 in Snow Light Snow
3:09 AM 35.6 °F 25.9 °F 24.8 °F 65% 29.78 in 4.0 mi SSW 16.1 mph 27.6 mph 0.01 in Snow Light Snow
3:46 AM 35.6 °F 25.9 °F 23.0 °F 60% 29.76 in 1.8 mi SSW 16.1 mph 34.5 mph 0.02 in Snow Light Snow
3:53 AM 35.1 °F 24.8 °F 24.1 °F 64% 29.67 in 1.8 mi SSW 17.3 mph 26.5 mph 0.03 in Snow Light Snow
4:20 AM 33.8 °F 23.9 °F 24.8 °F 70% 29.72 in 2.0 mi SSW 15.0 mph 27.6 mph 0.01 in Snow Light Snow
4:27 AM 33.8 °F 27.0 °F 26.6 °F 75% 29.72 in 1.2 mi SSW 8.1 mph 24.2 mph 0.01 in Snow Light Snow
4:36 AM 32.0 °F 20.8 °F 26.6 °F 80% 29.70 in 0.8 mi South 17.3 mph 23.0 mph 0.02 in Snow Light Snow
4:41 AM 32.0 °F 21.6 °F 28.4 °F 87% 29.70 in 0.5 mi SSW 15.0 mph - 0.02 in Fog , Snow Snow
4:53 AM 32.0 °F 24.8 °F 28.0 °F 85% 29.63 in 0.5 mi SSW 8.1 mph - 0.03 in Fog , Snow Snow
5:33 AM 33.8 °F 27.0 °F 26.6 °F 75% 29.69 in 1.8 mi SSW 8.1 mph 17.3 mph 0.04 in Snow Light Snow
5:40 AM 33.8 °F 27.0 °F 26.6 °F 75% 29.69 in 2.5 mi SSW 8.1 mph 21.9 mph 0.04 in Snow Light Snow
5:46 AM 33.8 °F 27.7 °F 26.6 °F 75% 29.69 in 3.0 mi Variable 6.9 mph 21.9 mph 0.04 in Snow Light Snow
5:53 AM 33.1 °F 26.9 °F 23.0 °F 66% 29.62 in 8.0 mi Variable 6.9 mph 20.7 mph 0.04 in   Overcast
6:05 AM 33.8 °F 23.9 °F 21.2 °F 60% 29.69 in 5.0 mi SSW 15.0 mph 25.3 mph 0.00 in Snow Light Snow
6:13 AM 32.0 °F 23.6 °F 21.2 °F 64% 29.68 in 3.0 mi SW 10.4 mph 25.3 mph 0.00 in Snow Light Snow
6:18 AM 32.0 °F 24.2 °F 21.2 °F 64% 29.67 in 5.0 mi SSW 9.2 mph 20.7 mph 0.00 in Snow Light Snow
6:36 AM 32.0 °F 21.6 °F 19.4 °F 60% 29.68 in 2.5 mi SSW 15.0 mph 27.6 mph 0.00 in Rain Light Rain
6:38 AM 32.0 °F 22.1 °F 19.4 °F 60% 29.68 in 1.0 mi SSW 13.8 mph 27.6 mph 0.00 in Snow Light Snow
6:45 AM 28.4 °F 18.5 °F 24.8 °F 86% 29.67 in 0.2 mi SSW 11.5 mph 25.3 mph 0.01 in Snow Heavy Snow
6:48 AM 28.4 °F 19.7 °F 24.8 °F 86% 29.67 in 0.2 mi SSW 9.2 mph 21.9 mph 0.01 in Snow Heavy Snow
6:53 AM 30.0 °F 23.2 °F 24.1 °F 79% 29.61 in 0.2 mi Variable 6.9 mph 19.6 mph 0.01 in Snow Heavy Snow
7:00 AM 30.2 °F 21.9 °F 24.8 °F 80% 29.67 in 0.5 mi South 9.2 mph 17.3 mph 0.00 in Snow Snow
7:09 AM 30.2 °F 24.3 °F 24.8 °F 80% 29.65 in 0.5 mi Variable 5.8 mph - 0.00 in Snow Snow
7:13 AM 30.2 °F - 24.8 °F 80% 29.66 in 1.0 mi Calm Calm - 0.00 in Snow Light Snow
7:17 AM 30.2 °F 20.2 °F 23.0 °F 75% 29.66 in 4.0 mi South 12.7 mph 31.1 mph 0.00 in Snow Light Snow
7:20 AM 30.2 °F 18.5 °F 21.2 °F 69% 29.66 in 0.5 mi South 17.3 mph 34.5 mph 0.00 in Snow Snow
7:27 AM 28.4 °F 22.2 °F 23.0 °F 80% 29.67 in 0.2 mi Variable 5.8 mph 34.5 mph 0.01 in Snow Heavy Snow
7:53 AM 28.4 °F 24.6 °F 24.8 °F 86% 29.67 in 0.2 mi Variable 3.5 mph - N/A Snow Heavy Snow
8:19 AM 30.2 °F 24.3 °F 21.2 °F 69% 29.65 in 2.5 mi South 5.8 mph - 0.00 in Snow Light Snow
8:21 AM 30.2 °F 23.4 °F 21.2 °F 69% 29.65 in 4.0 mi SSW 6.9 mph - 0.00 in Snow Light Snow
8:29 AM 30.2 °F 24.3 °F 19.4 °F 64% 29.66 in 9.0 mi South 5.8 mph 20.7 mph 0.00 in   Overcast
8:42 AM 30.2 °F 24.3 °F 15.8 °F 55% 29.68 in 10.0 mi Variable 5.8 mph - 0.00 in   Mostly Cloudy
8:53 AM 30.0 °F 20.0 °F 14.0 °F 51% 29.63 in 10.0 mi South 12.7 mph 18.4 mph 0.00 in   Mostly Cloudy
9:26 AM 28.4 °F - 19.4 °F 69% 29.68 in 4.0 mi Calm Calm - 0.00 in Snow Light Snow
9:32 AM 28.4 °F - 21.2 °F 74% 29.69 in 1.8 mi Calm Calm - 0.00 in Snow Light Snow
9:48 AM 28.4 °F - 19.4 °F 69% 29.70 in 3.0 mi Calm Calm - 0.01 in Snow Light Snow
9:53 AM 28.9 °F - 19.0 °F 67% 29.66 in 2.5 mi Calm Calm - 0.01 in Snow Light Snow
10:02 AM 28.4 °F - 17.6 °F 64% 29.70 in 1.2 mi Calm Calm - 0.00 in Snow Light Snow
10:12 AM 28.4 °F - 17.6 °F 64% 29.71 in 3.0 mi Calm Calm - 0.00 in Snow Light Snow
10:20 AM 28.4 °F - 17.6 °F 64% 29.71 in 9.0 mi Calm Calm - N/A   Overcast
10:42 AM 26.6 °F 16.8 °F 17.6 °F 69% 29.73 in 2.5 mi NNE 10.4 mph 25.3 mph 0.00 in Snow Light Snow
10:50 AM 24.8 °F 16.1 °F 17.6 °F 74% 29.74 in 0.8 mi NNE 8.1 mph 18.4 mph 0.00 in Snow Light Snow
10:51 AM 25.0 °F 16.3 °F 18.0 °F 75% 29.71 in 0.8 mi NNE 8.1 mph 18.4 mph 0.00 in Snow Light Snow
11:06 AM 24.8 °F 16.9 °F 19.4 °F 80% 29.75 in 0.2 mi NNE 6.9 mph - 0.00 in Snow Heavy Snow
11:33 AM 24.8 °F 15.3 °F 17.6 °F 74% 29.76 in 1.0 mi NNE 9.2 mph - 0.01 in Snow Light Snow
11:45 AM 24.8 °F 16.9 °F 15.8 °F 69% 29.76 in 3.0 mi Variable 6.9 mph - 0.01 in Snow Light Snow
11:53 AM 26.1 °F 20.5 °F 16.0 °F 66% 29.74 in 4.0 mi Variable 4.6 mph - 0.01 in Snow Light Snow
12:00 PM 26.6 °F 19.1 °F 15.8 °F 64% 29.76 in 1.8 mi Variable 6.9 mph - 0.00 in Snow Light Snow
12:16 PM 24.8 °F 17.9 °F 15.8 °F 69% 29.76 in 3.0 mi NNE 5.8 mph - 0.00 in Snow Light Snow
12:26 PM 26.6 °F 22.6 °F 17.6 °F 69% 29.76 in 1.2 mi Variable 3.5 mph - 0.00 in Snow Light Snow
12:33 PM 24.8 °F 15.3 °F 19.4 °F 80% 29.76 in 0.2 mi NNE 9.2 mph - 0.00 in Snow Heavy Snow
12:49 PM 26.6 °F 17.5 °F 15.8 °F 64% 29.75 in 1.5 mi NNE 9.2 mph 17.3 mph 0.00 in Snow Light Snow
12:53 PM 27.0 °F 18.0 °F 14.0 °F 58% 29.72 in 4.0 mi NNE 9.2 mph 17.3 mph 0.00 in Snow Light Snow
1:05 PM 26.6 °F 22.6 °F 17.6 °F 69% 29.76 in 1.8 mi Variable 3.5 mph - 0.00 in Snow Light Snow
1:27 PM 24.8 °F - 17.6 °F 74% 29.75 in 0.8 mi Calm Calm - 0.00 in Snow Light Snow
1:49 PM 26.6 °F 20.0 °F 15.8 °F 64% 29.76 in 2.0 mi Variable 5.8 mph - 0.00 in Snow Light Snow
1:50 PM 26.1 °F 19.4 °F 16.0 °F 66% 29.75 in 2.5 mi Variable 5.8 mph - 0.00 in Snow Light Snow
1:55 PM 26.6 °F 20.0 °F 14.0 °F 59% 29.76 in 5.0 mi Variable 5.8 mph - 0.00 in Snow Light Snow
2:14 PM 26.6 °F 20.0 °F 12.2 °F 55% 29.76 in 10.0 mi Variable 5.8 mph 16.1 mph 0.00 in   Overcast
2:53 PM 26.6 °F 15.2 °F 10.4 °F 51% 29.77 in 10.0 mi NNE 13.8 mph 21.9 mph N/A   Overcast
3:53 PM 25.0 °F 17.1 °F 12.9 °F 60% 29.80 in 10.0 mi Variable 6.9 mph 18.4 mph N/A   Overcast
4:53 PM 24.1 °F 17.0 °F 9.0 °F 53% 29.83 in 10.0 mi Variable 5.8 mph 20.7 mph N/A   Overcast
7:53 PM 19.9 °F 5.2 °F 1.9 °F 46% 29.91 in 10.0 mi NE 17.3 mph 24.2 mph N/A   Partly Cloudy
8:53 PM 19.0 °F 11.1 °F 3.9 °F 52% 29.93 in 10.0 mi North 5.8 mph - N/A   Scattered Clouds
9:53 PM 19.0 °F 4.5 °F 6.1 °F 57% 29.97 in 10.0 mi NE 16.1 mph 21.9 mph N/A   Overcast
10:53 PM 18.0 °F 4.2 °F 6.1 °F 60% 30.01 in 10.0 mi North 13.8 mph 23.0 mph N/A   Overcast
11:53 PM 17.1 °F 5.0 °F 1.9 °F 52% 30.01 in 10.0 mi North 10.4 mph 19.6 mph 0.00 in   Mostly Cloudy